| time (UTC) | temp F | wind direction | speed MPH | gust MPH | rain 1hr in | rain 24hr in | rain mn in | humidity % | barometer mb |
| 20260506184532 | 64 | 199 | 2.0 | 9.0 | 0.00 | 0.21 | 0.21 | 89 | 1007.4 |
| 20260506184027 | 64 | 182 | 3.0 | 10.0 | 0.00 | 0.21 | 0.21 | 89 | 1007.5 |
| 20260506183544 | 64 | 178 | 2.0 | 11.0 | 0.00 | 0.21 | 0.21 | 89 | 1007.4 |
| 20260506183044 | 64 | 196 | 4.0 | 12.0 | 0.00 | 0.21 | 0.21 | 89 | 1007.6 |
| 20260506182542 | 64 | 218 | 4.0 | 12.0 | 0.00 | 0.21 | 0.21 | 89 | 1007.7 |
| 20260506182037 | 64 | 213 | 7.0 | 11.0 | 0.00 | 0.21 | 0.21 | 88 | 1007.6 |
| 20260506181530 | 64 | 182 | 4.0 | 11.0 | 0.00 | 0.21 | 0.21 | 88 | 1007.6 |
| 20260506181025 | 65 | 211 | 4.0 | 11.0 | 0.00 | 0.21 | 0.21 | 87 | 1007.7 |
| 20260506180542 | 65 | 266 | 4.0 | 11.0 | 0.00 | 0.21 | 0.21 | 86 | 1007.7 |
| 20260506175535 | 65 | 204 | 6.0 | 13.0 | 0.00 | 0.21 | 0.21 | 84 | 1007.5 |
| 20260506175026 | 65 | 233 | 7.0 | 14.0 | 0.00 | 0.21 | 0.21 | 84 | 1007.5 |
| 20260506174542 | 65 | 215 | 6.0 | 14.0 | 0.00 | 0.21 | 0.21 | 84 | 1007.4 |
| 20260506174038 | 65 | 200 | 6.0 | 11.0 | 0.00 | 0.21 | 0.21 | 84 | 1007.3 |
| 20260506173531 | 65 | 192 | 7.0 | 13.0 | 0.00 | 0.21 | 0.21 | 85 | 1007.4 |
| 20260506173026 | 65 | 186 | 6.0 | 13.0 | 0.00 | 0.21 | 0.21 | 85 | 1007.4 |
| 20260506172542 | 65 | 198 | 8.0 | 13.0 | 0.00 | 0.21 | 0.21 | 85 | 1007.3 |
| 20260506172039 | 65 | 192 | 7.0 | 13.0 | 0.00 | 0.21 | 0.21 | 85 | 1007.3 |
| 20260506171532 | 65 | 179 | 6.0 | 14.0 | 0.00 | 0.21 | 0.21 | 85 | 1007.4 |
| 20260506171025 | 64 | 185 | 7.0 | 13.0 | 0.00 | 0.21 | 0.21 | 85 | 1007.3 |
| 20260506170544 | 64 | 196 | 10.0 | 13.0 | 0.00 | 0.21 | 0.21 | 85 | 1007.3 |
| 20260506170044 | 64 | 196 | 7.0 | 13.0 | 0.00 | 0.21 | 0.21 | 86 | 1007.3 |
| 20260506165537 | 64 | 188 | 7.0 | 13.0 | 0.00 | 0.21 | 0.21 | 86 | 1007.3 |
| 20260506165033 | 64 | 210 | 6.0 | 12.0 | 0.00 | 0.21 | 0.21 | 86 | 1007.3 |
| 20260506164525 | 63 | 182 | 7.0 | 12.0 | 0.00 | 0.21 | 0.21 | 87 | 1007.5 |
| 20260506164045 | 63 | 219 | 6.0 | 11.0 | 0.00 | 0.21 | 0.21 | 87 | 1007.5 |
| 20260506163540 | 63 | 188 | 5.0 | 12.0 | 0.00 | 0.21 | 0.21 | 87 | 1007.4 |
| 20260506163036 | 63 | 186 | 6.0 | 12.0 | 0.00 | 0.21 | 0.21 | 87 | 1007.4 |
| 20260506162528 | 63 | 223 | 5.0 | 12.0 | 0.00 | 0.21 | 0.21 | 87 | 1007.5 |
| 20260506162047 | 63 | 229 | 5.0 | 12.0 | 0.00 | 0.21 | 0.21 | 87 | 1007.4 |
| 20260506161546 | 63 | 215 | 4.0 | 13.0 | 0.00 | 0.21 | 0.21 | 87 | 1007.4 |
| 20260506161045 | 63 | 200 | 9.0 | 13.0 | 0.00 | 0.21 | 0.21 | 87 | 1007.4 |
| 20260506160542 | 63 | 220 | 8.0 | 14.0 | 0.00 | 0.21 | 0.21 | 88 | 1007.5 |
| 20260506160045 | 63 | 199 | 9.0 | 21.0 | 0.00 | 0.21 | 0.21 | 88 | 1007.4 |
| 20260506155538 | 63 | 184 | 11.0 | 21.0 | 0.00 | 0.21 | 0.21 | 88 | 1007.3 |
| 20260506155040 | 63 | 175 | 13.0 | 21.0 | 0.00 | 0.21 | 0.21 | 88 | 1007.3 |
| 20260506154541 | 63 | 196 | 11.0 | 20.0 | 0.00 | 0.21 | 0.21 | 90 | 1007.3 |
| 20260506154037 | 62 | 162 | 14.0 | 21.0 | 0.00 | 0.21 | 0.21 | 90 | 1007.2 |
| 20260506153556 | 62 | 184 | 10.0 | 17.0 | 0.00 | 0.21 | 0.21 | 91 | 1006.9 |
| 20260506153031 | 62 | 190 | 11.0 | 16.0 | 0.01 | 0.21 | 0.21 | 91 | 1007.0 |
| 20260506152525 | 62 | 178 | 9.0 | 16.0 | 0.02 | 0.21 | 0.21 | 91 | 1007.1 |
| 20260506152044 | 62 | 180 | 13.0 | 16.0 | 0.04 | 0.21 | 0.21 | 91 | 1007.0 |
| 20260506151544 | 62 | 180 | 10.0 | 20.0 | 0.05 | 0.21 | 0.21 | 91 | 1007.1 |
| 20260506151104 | 62 | 177 | 11.0 | 20.0 | 0.06 | 0.21 | 0.21 | 92 | 1007.2 |
| 20260506150534 | 62 | 180 | 13.0 | 17.0 | 0.07 | 0.21 | 0.21 | 92 | 1007.1 |
| 20260506150031 | 61 | 156 | 13.0 | 15.0 | 0.08 | 0.21 | 0.21 | 92 | 1006.9 |
| 20260506145550 | 61 | 182 | 11.0 | 15.0 | 0.09 | 0.21 | 0.21 | 92 | 1006.7 |
| 20260506145026 | 61 | 175 | 10.0 | 15.0 | 0.10 | 0.21 | 0.21 | 92 | 1006.8 |
| 20260506144540 | 61 | 163 | 12.0 | 16.0 | 0.10 | 0.21 | 0.21 | 91 | 1006.8 |
| 20260506144037 | 61 | 176 | 12.0 | 16.0 | 0.11 | 0.21 | 0.21 | 91 | 1007.0 |
| 20260506143531 | 61 | 171 | 11.0 | 15.0 | 0.11 | 0.20 | 0.20 | 91 | 1007.3 |
| 20260506143027 | 60 | 164 | 11.0 | 17.0 | 0.13 | 0.20 | 0.20 | 91 | 1007.4 |
| 20260506142547 | 60 | 171 | 10.0 | 14.0 | 0.11 | 0.18 | 0.18 | 90 | 1007.5 |
| 20260506142044 | 60 | 164 | 12.0 | 16.0 | 0.11 | 0.17 | 0.17 | 90 | 1007.6 |
| 20260506141541 | 61 | 167 | 11.0 | 19.0 | 0.10 | 0.16 | 0.16 | 90 | 1007.9 |
| 20260506141038 | 61 | 188 | 12.0 | 15.0 | 0.08 | 0.14 | 0.14 | 89 | 1008.1 |
| 20260506140557 | 61 | 186 | 10.0 | 15.0 | 0.08 | 0.14 | 0.14 | 89 | 1008.0 |
| 20260506140040 | 61 | 228 | 10.0 | 16.0 | 0.08 | 0.13 | 0.13 | 88 | 1008.0 |
| 20260506135533 | 61 | 173 | 10.0 | 14.0 | 0.07 | 0.12 | 0.12 | 88 | 1007.8 |
| 20260506135025 | 61 | 179 | 9.0 | 15.0 | 0.07 | 0.11 | 0.11 | 88 | 1007.9 |
| 20260506134605 | 61 | 179 | 11.0 | 18.0 | 0.07 | 0.11 | 0.11 | 87 | 1007.8 |
| 20260506134043 | 61 | 184 | 9.0 | 16.0 | 0.06 | 0.10 | 0.10 | 87 | 1007.7 |
| 20260506133541 | 61 | 197 | 10.0 | 16.0 | 0.05 | 0.09 | 0.09 | 86 | 1007.6 |
| 20260506133036 | 62 | 213 | 11.0 | 16.0 | 0.03 | 0.07 | 0.07 | 86 | 1007.7 |
| 20260506132530 | 62 | 194 | 11.0 | 16.0 | 0.03 | 0.07 | 0.07 | 86 | 1007.6 |
| 20260506132047 | 62 | 190 | 9.0 | 17.0 | 0.02 | 0.06 | 0.06 | 86 | 1007.6 |
| 20260506131536 | 62 | 144 | 12.0 | 17.0 | 0.02 | 0.06 | 0.06 | 85 | 1007.6 |
| 20260506131027 | 61 | 186 | 9.0 | 14.0 | 0.03 | 0.06 | 0.06 | 86 | 1007.5 |
| 20260506130541 | 61 | 164 | 10.0 | 14.0 | 0.03 | 0.06 | 0.06 | 85 | 1007.5 |
| 20260506130036 | 61 | 170 | 9.0 | 13.0 | 0.02 | 0.05 | 0.05 | 84 | 1007.6 |
| 20260506125530 | 62 | 187 | 9.0 | 14.0 | 0.02 | 0.05 | 0.05 | 84 | 1007.5 |
| 20260506125029 | 62 | 160 | 8.0 | 12.0 | 0.01 | 0.04 | 0.04 | 84 | 1007.5 |
| 20260506124547 | 62 | 147 | 10.0 | 12.0 | 0.01 | 0.04 | 0.04 | 83 | 1007.4 |
| 20260506124044 | 62 | 185 | 8.0 | 15.0 | 0.01 | 0.04 | 0.04 | 83 | 1007.4 |
| 20260506123543 | 61 | 158 | 8.0 | 15.0 | 0.01 | 0.04 | 0.04 | 83 | 1007.3 |
| 20260506123044 | 61 | 180 | 11.0 | 16.0 | 0.01 | 0.04 | 0.04 | 84 | 1007.4 |
| 20260506122537 | 61 | 155 | 11.0 | 16.0 | 0.01 | 0.04 | 0.04 | 84 | 1007.3 |
| 20260506122035 | 61 | 180 | 11.0 | 13.0 | 0.02 | 0.04 | 0.04 | 84 | 1007.3 |
| 20260506121531 | 61 | 165 | 10.0 | 12.0 | 0.02 | 0.04 | 0.04 | 83 | 1007.8 |
| 20260506121025 | 61 | 166 | 8.0 | 11.0 | 0.01 | 0.03 | 0.03 | 83 | 1007.8 |
| 20260506120542 | 61 | 172 | 8.0 | 12.0 | 0.02 | 0.03 | 0.03 | 83 | 1007.8 |
| 20260506120037 | 61 | 188 | 9.0 | 12.0 | 0.02 | 0.03 | 0.03 | 82 | 1007.7 |
| 20260506115555 | 61 | 190 | 8.0 | 16.0 | 0.02 | 0.03 | 0.03 | 82 | 1007.7 |
| 20260506115027 | 61 | 166 | 9.0 | 17.0 | 0.03 | 0.03 | 0.03 | 81 | 1007.7 |
| 20260506114539 | 61 | 176 | 10.0 | 15.0 | 0.03 | 0.03 | 0.03 | 80 | 1007.8 |
| 20260506114040 | 61 | 173 | 10.0 | 16.0 | 0.03 | 0.03 | 0.03 | 80 | 1007.8 |
| 20260506113527 | 61 | 185 | 9.0 | 16.0 | 0.03 | 0.03 | 0.03 | 79 | 1008.0 |
| 20260506113046 | 61 | 197 | 9.0 | 14.0 | 0.03 | 0.03 | 0.03 | 79 | 1008.0 |
| 20260506112603 | 62 | 189 | 8.0 | 14.0 | 0.02 | 0.02 | 0.02 | 78 | 1008.0 |
| 20260506112056 | 62 | 186 | 7.0 | 13.0 | 0.02 | 0.02 | 0.02 | 77 | 1007.9 |
| 20260506111528 | 62 | 186 | 9.0 | 15.0 | 0.02 | 0.02 | 0.02 | 75 | 1007.8 |
| 20260506111048 | 63 | 175 | 9.0 | 16.0 | 0.01 | 0.01 | 0.01 | 74 | 1007.8 |
| 20260506110544 | 63 | 184 | 11.0 | 16.0 | 0.01 | 0.01 | 0.01 | 72 | 1007.9 |
| 20260506110044 | 64 | 188 | 11.0 | 17.0 | 0.01 | 0.01 | 0.01 | 69 | 1007.7 |
| 20260506105538 | 65 | 186 | 11.0 | 17.0 | 0.00 | 0.00 | 0.00 | 67 | 1007.4 |
| 20260506105031 | 65 | 180 | 11.0 | 18.0 | 0.00 | 0.00 | 0.00 | 66 | 1007.2 |
| 20260506104524 | 65 | 187 | 9.0 | 14.0 | 0.00 | 0.00 | 0.00 | 65 | 1007.1 |
| 20260506104106 | 66 | 159 | 9.0 | 16.0 | 0.00 | 0.00 | 0.00 | 63 | 1007.0 |
| 20260506103538 | 66 | 156 | 11.0 | 16.0 | 0.00 | 0.00 | 0.00 | 61 | 1007.0 |
| 20260506103038 | 66 | 213 | 11.0 | 20.0 | 0.00 | 0.00 | 0.00 | 60 | 1007.0 |
| 20260506102534 | 66 | 169 | 11.0 | 21.0 | 0.00 | 0.00 | 0.00 | 59 | 1007.0 |
| 20260506102025 | 66 | 186 | 11.0 | 15.0 | 0.00 | 0.00 | 0.00 | 58 | 1006.8 |
| 20260506101542 | 66 | 194 | 10.0 | 14.0 | 0.00 | 0.00 | 0.00 | 58 | 1006.7 |
| 20260506101042 | 66 | 182 | 9.0 | 13.0 | 0.00 | 0.00 | 0.00 | 58 | 1006.7 |
| 20260506100535 | 66 | 183 | 9.0 | 13.0 | 0.00 | 0.00 | 0.00 | 58 | 1006.7 |
| 20260506100041 | 66 | 182 | 9.0 | 13.0 | 0.00 | 0.00 | 0.00 | 58 | 1006.5 |
| 20260506095538 | 66 | 186 | 10.0 | 13.0 | 0.00 | 0.00 | 0.00 | 58 | 1006.4 |
| 20260506095033 | 66 | 183 | 8.0 | 11.0 | 0.00 | 0.00 | 0.00 | 58 | 1006.4 |
| 20260506094524 | 66 | 188 | 8.0 | 14.0 | 0.00 | 0.00 | 0.00 | 58 | 1006.5 |
| 20260506094106 | 66 | 161 | 9.0 | 14.0 | 0.00 | 0.00 | 0.00 | 58 | 1006.4 |
| 20260506093540 | 66 | 194 | 9.0 | 12.0 | 0.00 | 0.00 | 0.00 | 58 | 1006.6 |
| 20260506093043 | 67 | 202 | 8.0 | 16.0 | 0.00 | 0.00 | 0.00 | 58 | 1006.6 |
| 20260506092542 | 67 | 176 | 11.0 | 16.0 | 0.00 | 0.00 | 0.00 | 57 | 1006.5 |
| 20260506092104 | 67 | 187 | 11.0 | 14.0 | 0.00 | 0.00 | 0.00 | 57 | 1006.6 |
| 20260506091541 | 67 | 187 | 10.0 | 13.0 | 0.00 | 0.00 | 0.00 | 57 | 1006.5 |
| 20260506091037 | 67 | 176 | 10.0 | 14.0 | 0.00 | 0.00 | 0.00 | 57 | 1006.7 |
| 20260506090530 | 67 | 194 | 10.0 | 14.0 | 0.00 | 0.00 | 0.00 | 57 | 1006.7 |
| 20260506090028 | 67 | 177 | 11.0 | 16.0 | 0.00 | 0.00 | 0.00 | 57 | 1006.6 |
| 20260506085539 | 67 | 167 | 9.0 | 13.0 | 0.00 | 0.00 | 0.00 | 56 | 1006.7 |
| 20260506085034 | 67 | 167 | 9.0 | 13.0 | 0.00 | 0.00 | 0.00 | 56 | 1006.9 |
| 20260506084553 | 67 | 158 | 9.0 | 13.0 | 0.00 | 0.00 | 0.00 | 56 | 1007.0 |
| 20260506084026 | 67 | 184 | 8.0 | 13.0 | 0.00 | 0.00 | 0.00 | 55 | 1007.1 |
| 20260506083541 | 67 | 194 | 9.0 | 13.0 | 0.00 | 0.00 | 0.00 | 55 | 1007.1 |
| 20260506083043 | 67 | 161 | 10.0 | 15.0 | 0.00 | 0.00 | 0.00 | 55 | 1007.0 |
| 20260506082538 | 67 | 190 | 10.0 | 15.0 | 0.00 | 0.00 | 0.00 | 55 | 1007.0 |
| 20260506082100 | 67 | 178 | 8.0 | 11.0 | 0.00 | 0.00 | 0.00 | 55 | 1007.0 |
| 20260506081537 | 67 | 173 | 7.0 | 12.0 | 0.00 | 0.00 | 0.00 | 55 | 1007.1 |
| 20260506081041 | 67 | 169 | 8.0 | 11.0 | 0.00 | 0.00 | 0.00 | 54 | 1007.1 |
| 20260506080534 | 67 | 155 | 9.0 | 11.0 | 0.00 | 0.00 | 0.00 | 54 | 1007.1 |
| 20260506073043 | 68 | 176 | 8.0 | 13.0 | 0.00 | 0.00 | 0.00 | 51 | 1006.9 |
| 20260506072534 | 68 | 134 | 8.0 | 13.0 | 0.00 | 0.00 | 0.00 | 50 | 1006.9 |
| 20260506072027 | 68 | 163 | 8.0 | 13.0 | 0.00 | 0.00 | 0.00 | 50 | 1007.0 |
| 20260506071543 | 68 | 136 | 11.0 | 15.0 | 0.00 | 0.00 | 0.00 | 50 | 1007.1 |
| 20260506071038 | 68 | 175 | 8.0 | 12.0 | 0.00 | 0.00 | 0.00 | 50 | 1006.9 |
| 20260506070532 | 68 | 169 | 9.0 | 15.0 | 0.00 | 0.00 | 0.00 | 49 | 1007.1 |
| 20260506062033 | 68 | 143 | 8.0 | 14.0 | 0.00 | 0.00 | 0.00 | 49 | 1007.6 |
| 20260506061525 | 68 | 157 | 8.0 | 15.0 | 0.00 | 0.00 | 0.00 | 49 | 1007.8 |
| 20260506061041 | 68 | 148 | 6.0 | 15.0 | 0.00 | 0.00 | 0.00 | 49 | 1007.8 |
| 20260506060539 | 68 | 143 | 9.0 | 14.0 | 0.00 | 0.00 | 0.00 | 49 | 1007.9 |
| 20260506051033 | 67 | 139 | 5.0 | 9.0 | 0.00 | 0.00 | 0.00 | 48 | 1008.7 |
| 20260506050528 | 67 | 135 | 5.0 | 8.0 | 0.00 | 0.00 | 0.00 | 47 | 1008.6 |
| 20260506045043 | 67 | 153 | 5.0 | 10.0 | 0.00 | 0.00 | 0.00 | 46 | 1008.6 |
| 20260506044540 | 67 | 155 | 6.0 | 10.0 | 0.00 | 0.00 | 0.00 | 46 | 1008.7 |
| 20260506044045 | 67 | 165 | 7.0 | 9.0 | 0.00 | 0.00 | 0.00 | 45 | 1008.6 |
| 20260506043604 | 68 | 155 | 7.0 | 11.0 | 0.00 | 0.00 | 0.00 | 45 | 1008.7 |
| 20260506043041 | 68 | 142 | 6.0 | 11.0 | 0.00 | 0.00 | 0.00 | 45 | 1008.6 |
| 20260506042534 | 68 | 162 | 7.0 | 10.0 | 0.00 | 0.00 | 0.00 | 45 | 1008.6 |
| 20260506042030 | 68 | 171 | 8.0 | 9.0 | 0.00 | 0.00 | 0.00 | 45 | 1008.7 |
| 20260506041524 | 68 | 158 | 8.0 | 11.0 | 0.00 | 0.00 | 0.00 | 45 | 1008.6 |
| 20260506041044 | 68 | 172 | 8.0 | 11.0 | 0.00 | 0.00 | 0.00 | 44 | 1008.7 |
| 20260506040543 | 68 | 175 | 7.0 | 10.0 | 0.00 | 0.00 | 0.00 | 44 | 1008.6 |
| 20260506040041 | 68 | 154 | 6.0 | 10.0 | 0.00 | 0.00 | 0.00 | 44 | 1008.6 |
| 20260506035539 | 68 | 153 | 4.0 | 5.0 | 0.00 | 0.00 | 0.00 | 44 | 1008.5 |
| 20260506035033 | 68 | 142 | 4.0 | 5.0 | 0.00 | 0.00 | 0.00 | 44 | 1008.4 |
| 20260506034525 | 68 | 149 | 3.0 | 5.0 | 0.00 | 0.00 | 0.00 | 45 | 1008.4 |
| 20260506034105 | 68 | 165 | 4.0 | 7.0 | 0.00 | 0.00 | 0.00 | 44 | 1008.4 |
| 20260506033541 | 68 | 167 | 5.0 | 7.0 | 0.00 | 0.00 | 0.00 | 44 | 1008.6 |
| 20260506033041 | 68 | 157 | 5.0 | 7.0 | 0.00 | 0.00 | 0.00 | 44 | 1008.6 |
| 20260506032534 | 68 | 173 | 5.0 | 7.0 | 0.00 | 0.00 | 0.00 | 43 | 1008.5 |
| 20260506032024 | 68 | 174 | 5.0 | 6.0 | 0.00 | 0.00 | 0.00 | 44 | 1008.5 |
| 20260506031539 | 68 | 170 | 5.0 | 7.0 | 0.00 | 0.00 | 0.00 | 44 | 1008.4 |
| 20260506031038 | 68 | 160 | 5.0 | 7.0 | 0.00 | 0.00 | 0.00 | 43 | 1008.4 |
| 20260506030531 | 68 | 145 | 5.0 | 7.0 | 0.00 | 0.00 | 0.00 | 43 | 1008.4 |
| 20260506030027 | 69 | 150 | 4.0 | 7.0 | 0.00 | 0.00 | 0.00 | 43 | 1008.4 |
| 20260506025544 | 69 | 161 | 3.0 | 7.0 | 0.00 | 0.00 | 0.00 | 43 | 1008.4 |
| 20260506025039 | 69 | 146 | 4.0 | 8.0 | 0.00 | 0.00 | 0.00 | 43 | 1008.5 |
| 20260506024558 | 70 | 159 | 6.0 | 9.0 | 0.00 | 0.00 | 0.00 | 41 | 1008.6 |
| 20260506024033 | 70 | 165 | 7.0 | 9.0 | 0.00 | 0.00 | 0.00 | 41 | 1008.5 |
| 20260506023524 | 70 | 168 | 6.0 | 9.0 | 0.00 | 0.00 | 0.00 | 40 | 1008.5 |
| 20260506023045 | 70 | 153 | 5.0 | 10.0 | 0.00 | 0.00 | 0.00 | 41 | 1008.4 |
| 20260506022542 | 71 | 173 | 6.0 | 8.0 | 0.00 | 0.00 | 0.00 | 40 | 1008.5 |
| 20260506022043 | 71 | 161 | 7.0 | 10.0 | 0.00 | 0.00 | 0.00 | 39 | 1008.6 |
| 20260506021540 | 71 | 162 | 8.0 | 11.0 | 0.00 | 0.00 | 0.00 | 39 | 1008.5 |
| 20260506021034 | 72 | 167 | 8.0 | 11.0 | 0.00 | 0.00 | 0.00 | 39 | 1008.5 |
| 20260506020525 | 72 | 162 | 9.0 | 13.0 | 0.00 | 0.00 | 0.00 | 38 | 1008.4 |
| 20260506020044 | 72 | 161 | 10.0 | 13.0 | 0.00 | 0.00 | 0.00 | 39 | 1008.4 |
| 20260506015541 | 72 | 186 | 11.0 | 13.0 | 0.00 | 0.00 | 0.00 | 39 | 1008.4 |
| 20260506015037 | 72 | 165 | 11.0 | 13.0 | 0.00 | 0.00 | 0.00 | 39 | 1008.4 |
| 20260506014533 | 72 | 173 | 10.0 | 14.0 | 0.00 | 0.00 | 0.00 | 39 | 1008.4 |
| 20260506014026 | 72 | 151 | 10.0 | 13.0 | 0.00 | 0.00 | 0.00 | 40 | 1008.2 |
| 20260506013541 | 72 | 167 | 9.0 | 13.0 | 0.00 | 0.00 | 0.00 | 40 | 1008.3 |
| 20260506013034 | 72 | 159 | 9.0 | 14.0 | 0.00 | 0.00 | 0.00 | 40 | 1008.2 |
| 20260506012525 | 72 | 158 | 9.0 | 12.0 | 0.00 | 0.00 | 0.00 | 40 | 1008.0 |
| 20260506012038 | 72 | 148 | 8.0 | 11.0 | 0.00 | 0.00 | 0.00 | 40 | 1008.0 |
| 20260506011532 | 72 | 178 | 9.0 | 12.0 | 0.00 | 0.00 | 0.00 | 40 | 1008.0 |
| 20260506011026 | 72 | 169 | 8.0 | 13.0 | 0.00 | 0.00 | 0.00 | 41 | 1007.8 |
| 20260506010543 | 72 | 169 | 6.0 | 9.0 | 0.00 | 0.00 | 0.00 | 41 | 1007.8 |
| 20260506010044 | 73 | 155 | 6.0 | 9.0 | 0.00 | 0.00 | 0.00 | 40 | 1007.8 |
| 20260506005542 | 73 | 180 | 6.0 | 8.0 | 0.00 | 0.00 | 0.00 | 40 | 1007.7 |
| 20260506005042 | 73 | 165 | 6.0 | 9.0 | 0.00 | 0.00 | 0.00 | 39 | 1007.7 |
| 20260506004540 | 73 | 188 | 5.0 | 7.0 | 0.00 | 0.00 | 0.00 | 39 | 1007.7 |
| 20260506004036 | 74 | 171 | 6.0 | 8.0 | 0.00 | 0.00 | 0.00 | 39 | 1007.8 |
| 20260506003531 | 74 | 167 | 6.0 | 8.0 | 0.00 | 0.00 | 0.00 | 39 | 1007.7 |
| 20260506003026 | 74 | 176 | 6.0 | 9.0 | 0.00 | 0.00 | 0.00 | 39 | 1007.7 |
| 20260506002537 | 75 | 182 | 6.0 | 9.0 | 0.00 | 0.00 | 0.00 | 38 | 1007.5 |
| 20260506002039 | 75 | 166 | 8.0 | 11.0 | 0.00 | 0.00 | 0.00 | 38 | 1007.5 |
| 20260506001530 | 75 | 175 | 8.0 | 11.0 | 0.00 | 0.00 | 0.00 | 38 | 1007.4 |
| 20260506001026 | 75 | 188 | 8.0 | 16.0 | 0.00 | 0.00 | 0.00 | 37 | 1007.4 |
| 20260506000543 | 76 | 187 | 9.0 | 15.0 | 0.00 | 0.00 | 0.00 | 37 | 1007.3 |
| 20260506000034 | 76 | 183 | 9.0 | 15.0 | 0.00 | 0.00 | 0.00 | 37 | 1007.3 |
| 20260505235525 | 76 | 167 | 10.0 | 14.0 | 0.00 | 0.00 | 0.00 | 36 | 1007.2 |
| 20260505235045 | 76 | 161 | 10.0 | 14.0 | 0.00 | 0.00 | 0.00 | 37 | 1007.1 |
| 20260505234538 | 77 | 182 | 10.0 | 18.0 | 0.00 | 0.00 | 0.00 | 36 | 1007.1 |
| 20260505234030 | 77 | 161 | 11.0 | 18.0 | 0.00 | 0.00 | 0.00 | 36 | 1007.0 |
| 20260505233543 | 77 | 169 | 11.0 | 16.0 | 0.00 | 0.00 | 0.00 | 36 | 1007.0 |
| 20260505233043 | 77 | 154 | 12.0 | 17.0 | 0.00 | 0.00 | 0.00 | 36 | 1007.1 |
| 20260505232530 | 77 | 165 | 11.0 | 17.0 | 0.00 | 0.00 | 0.00 | 36 | 1007.1 |
| 20260505232026 | 78 | 194 | 12.0 | 17.0 | 0.00 | 0.00 | 0.00 | 36 | 1007.0 |
| 20260505231539 | 78 | 177 | 13.0 | 17.0 | 0.00 | 0.00 | 0.00 | 36 | 1007.0 |
| 20260505231035 | 78 | 160 | 12.0 | 20.0 | 0.00 | 0.00 | 0.00 | 36 | 1007.0 |
| 20260505230526 | 78 | 175 | 10.0 | 19.0 | 0.00 | 0.00 | 0.00 | 36 | 1006.8 |
| 20260505230044 | 78 | 186 | 11.0 | 17.0 | 0.00 | 0.00 | 0.00 | 36 | 1006.9 |
| 20260505225536 | 78 | 182 | 12.0 | 21.0 | 0.00 | 0.00 | 0.00 | 35 | 1006.9 |
| 20260505225041 | 78 | 171 | 11.0 | 21.0 | 0.00 | 0.00 | 0.00 | 36 | 1007.0 |
| 20260505224541 | 79 | 190 | 12.0 | 20.0 | 0.00 | 0.00 | 0.00 | 35 | 1006.9 |
| 20260505224037 | 79 | 155 | 13.0 | 18.0 | 0.00 | 0.00 | 0.00 | 34 | 1006.9 |
| 20260505223529 | 79 | 178 | 12.0 | 23.0 | 0.00 | 0.00 | 0.00 | 33 | 1006.8 |
| 20260505223025 | 80 | 188 | 12.0 | 24.0 | 0.00 | 0.00 | 0.00 | 32 | 1006.9 |
| 20260505222531 | 80 | 187 | 17.0 | 25.0 | 0.00 | 0.00 | 0.00 | 31 | 1006.9 |
| 20260505222044 | 80 | 184 | 14.0 | 25.0 | 0.00 | 0.00 | 0.00 | 29 | 1006.9 |
| 20260505221529 | 80 | 187 | 15.0 | 25.0 | 0.00 | 0.00 | 0.00 | 29 | 1006.8 |
| 20260505221043 | 80 | 196 | 15.0 | 25.0 | 0.00 | 0.00 | 0.00 | 29 | 1006.8 |
| 20260505220535 | 80 | 174 | 19.0 | 26.0 | 0.00 | 0.00 | 0.00 | 28 | 1006.9 |
| 20260505220027 | 81 | 186 | 19.0 | 26.0 | 0.00 | 0.00 | 0.00 | 28 | 1006.9 |
| 20260505215540 | 81 | 198 | 16.0 | 33.0 | 0.00 | 0.00 | 0.00 | 29 | 1006.9 |
| 20260505215035 | 81 | 182 | 18.0 | 33.0 | 0.00 | 0.00 | 0.00 | 29 | 1006.8 |
| 20260505214526 | 82 | 185 | 16.0 | 24.0 | 0.00 | 0.00 | 0.00 | 29 | 1006.8 |
| 20260505214047 | 82 | 175 | 14.0 | 20.0 | 0.00 | 0.00 | 0.00 | 29 | 1006.8 |
| 20260505213603 | 83 | 189 | 15.0 | 26.0 | 0.00 | 0.00 | 0.00 | 29 | 1006.8 |
| 20260505213043 | 83 | 223 | 13.0 | 28.0 | 0.00 | 0.00 | 0.00 | 29 | 1006.8 |
| 20260505212600 | 83 | 184 | 15.0 | 28.0 | 0.00 | 0.00 | 0.00 | 30 | 1006.8 |
| 20260505212036 | 83 | 192 | 15.0 | 23.0 | 0.00 | 0.00 | 0.00 | 29 | 1006.7 |
| 20260505211528 | 83 | 188 | 13.0 | 28.0 | 0.00 | 0.00 | 0.00 | 30 | 1006.7 |
| 20260505211044 | 83 | 174 | 18.0 | 28.0 | 0.00 | 0.00 | 0.00 | 30 | 1006.7 |
| 20260505210537 | 83 | 157 | 18.0 | 26.0 | 0.00 | 0.00 | 0.00 | 30 | 1006.8 |
| 20260505210036 | 84 | 170 | 19.0 | 24.0 | 0.00 | 0.00 | 0.00 | 29 | 1006.7 |
| 20260505205526 | 84 | 176 | 10.0 | 24.0 | 0.00 | 0.00 | 0.00 | 31 | 1006.7 |
| 20260505205044 | 83 | 171 | 14.0 | 27.0 | 0.00 | 0.00 | 0.00 | 30 | 1006.7 |
| 20260505204536 | 84 | 169 | 20.0 | 27.0 | 0.00 | 0.00 | 0.00 | 29 | 1006.9 |
| 20260505204033 | 84 | 170 | 15.0 | 25.0 | 0.00 | 0.00 | 0.00 | 30 | 1006.8 |
| 20260505203526 | 84 | 184 | 15.0 | 25.0 | 0.00 | 0.00 | 0.00 | 32 | 1006.8 |
| 20260505203044 | 84 | 163 | 15.0 | 24.0 | 0.00 | 0.00 | 0.00 | 32 | 1006.8 |
| 20260505202542 | 84 | 192 | 15.0 | 24.0 | 0.00 | 0.00 | 0.00 | 31 | 1006.8 |
| 20260505202039 | 84 | 184 | 18.0 | 26.0 | 0.00 | 0.00 | 0.00 | 31 | 1006.9 |
| 20260505201558 | 84 | 190 | 13.0 | 26.0 | 0.00 | 0.00 | 0.00 | 31 | 1006.7 |
| 20260505201034 | 84 | 178 | 15.0 | 28.0 | 0.00 | 0.00 | 0.00 | 31 | 1006.9 |
| 20260505200526 | 84 | 197 | 10.0 | 25.0 | 0.00 | 0.00 | 0.00 | 32 | 1006.9 |
| 20260505200043 | 84 | 205 | 17.0 | 24.0 | 0.00 | 0.00 | 0.00 | 32 | 1006.9 |
| 20260505195542 | 84 | 159 | 17.0 | 26.0 | 0.00 | 0.00 | 0.00 | 32 | 1007.0 |
| 20260505195043 | 84 | 185 | 17.0 | 26.0 | 0.00 | 0.00 | 0.00 | 32 | 1007.1 |
| 20260505194536 | 84 | 182 | 17.0 | 26.0 | 0.00 | 0.00 | 0.00 | 32 | 1007.2 |
| 20260505194027 | 83 | 186 | 18.0 | 26.0 | 0.00 | 0.00 | 0.00 | 32 | 1007.3 |
| 20260505193526 | 83 | 172 | 20.0 | 26.0 | 0.00 | 0.00 | 0.00 | 32 | 1007.3 |
| 20260505193046 | 84 | 159 | 17.0 | 26.0 | 0.00 | 0.00 | 0.00 | 32 | 1007.5 |
| 20260505192542 | 84 | 166 | 9.0 | 20.0 | 0.00 | 0.00 | 0.00 | 33 | 1007.5 |
| 20260505192038 | 83 | 190 | 12.0 | 21.0 | 0.00 | 0.00 | 0.00 | 32 | 1007.6 |
| 20260505191529 | 83 | 232 | 12.0 | 25.0 | 0.00 | 0.00 | 0.00 | 33 | 1007.6 |
| 20260505191049 | 83 | 180 | 16.0 | 25.0 | 0.00 | 0.00 | 0.00 | 32 | 1007.6 |
| 20260505190543 | 83 | 180 | 15.0 | 23.0 | 0.00 | 0.00 | 0.00 | 32 | 1007.7 |
| 20260505190038 | 83 | 178 | 11.0 | 22.0 | 0.00 | 0.00 | 0.00 | 34 | 1007.7 |
| 20260505185533 | 83 | 194 | 15.0 | 22.0 | 0.00 | 0.00 | 0.00 | 33 | 1007.8 |
| 20260505185029 | 83 | 163 | 14.0 | 22.0 | 0.00 | 0.00 | 0.00 | 33 | 1007.7 |